Regional Weather Roundup
Issued by NWS Jackson, KY

Home | Current Version | Previous Version | Graphics & Text | Print | Product List | Glossary On
Versions: 1 2 3 4 5 6 7 8 9 10 11 12 13 14 15 16 17 18 19 20 21 22 23 24 25 26 27 28 29 30 31 32 33 34 35 36 37 38 39 40 41 42 43 44 45 46 47 48 49 50
375
ASUS43 KJKL 301410
RWRJKL

EAST KENTUCKY HOURLY WEATHER ROUNDUP
NATIONAL WEATHER SERVICE JACKSON KY
1000 AM EDT MON MAY 30 2016

NOTE: "FAIR" INDICATES FEW OR NO CLOUDS BELOW 12,000 FEET WITH
NO SIGNIFICANT WEATHER AND/OR OBSTRUCTIONS TO VISIBILITY.

* THESE REPORTS ARE NOT UNDER NWS QUALITY CONTROL AND MAY NOT
  REPORT WEATHER SUCH AS PRECIPITATION AND FOG.

KYZ079-080-083-085-087-088-110-112-115-119-120-301500
...EASTERN KENTUCKY...

CITY           SKY/WX    TMP DP  RH WIND       PRES   REMARKS
JACKSON        SUNNY     74  63  68 VRB3      30.07S
LONDON         SUNNY     74  65  73 W6        30.07S
SOMERSET*      SUNNY     72  70  94 CALM      30.08S
MONTICELLO*    SUNNY     76  66  71 VRB7      30.09S
WILLIAMSBURG*  SUNNY     72  68  88 W3        30.08S
MIDDLESBORO*   SUNNY     67  64  88 CALM      30.09S
HARLAN APT*      N/A     70  63  78 CALM      30.09R
BLACK MTN*       N/A     70  59  68 NW1         N/A
PIKE CO APT*   PTSUNNY   68  67  96 CALM      30.08S
BIG SANDY APT* PTSUNNY   68  66  92 CALM      30.07S
MOREHEAD APT*  SUNNY     72  66  83 CALM      30.09R
ASHLAND*       SUNNY     72  66  83 CALM      30.04S
$$

KYZ035-036-041-042-044-050-067-078-099-301500
...CENTRAL KENTUCKY...

CITY           SKY/WX    TMP DP  RH WIND       PRES   REMARKS
MT STERLING*   MOSUNNY   73  68  83 NW3       30.08S
FLEMING/MASON* PTSUNNY   70  66  87 CALM      30.08S
DANVILLE*      SUNNY     73  64  73 NW3       30.08R
RICHMOND*      SUNNY     73  66  78 W5        30.07R
LEXINGTON      SUNNY     76  66  71 CALM      30.07R
FRANKFORT      SUNNY     76  65  68 NW3       30.05S
LOUISVILLE     MOSUNNY   79  60  52 NW3       30.06R
LEBANON*         N/A     75  66  73 NW5       30.08R HAZE
GLASGOW*       SUNNY     77  62  60 CALM      30.08R
BOWLING GREEN  SUNNY     79  64  60 VRB3      30.07R
$$

KYZ091>093-OHZ055-061-077-WVZ005-015-034-035-042-301500
...SOUTHERN OHIO/WEST VIRGINIA...

CITY           SKY/WX    TMP DP  RH WIND       PRES   REMARKS
COVINGTON      PTSUNNY   77  63  61 N5        30.06S
COLUMBUS       PTSUNNY   73  61  65 N6        30.05R
DAYTON         PTSUNNY   76  58  53 NW7       30.07S
WILMINGTON     SUNNY     74  62  66 N7        30.06S
HUNTINGTON       N/A     75  64  68 VRB3      30.05R
CHARLESTON       N/A     72  64  76 CALM      30.06R
PINEVILLE*       N/A     72  59  62 MISG      30.14R
BECKLEY          N/A     71  57  61 W5        30.11R
BLUEFIELD        N/A     66  58  75 VRB3      30.13S
LOGAN CO APT*    N/A     72  64  78 CALM      30.08R
$$

VAZ002-007-008-TNZ017-027-036-066-071-301500
...SOUTHWEST VIRGINIA/EAST TENNESSEE...

CITY           SKY/WX    TMP DP  RH WIND       PRES   REMARKS
WISE*            N/A     72  55  56 CALM      30.13F
JONESVILLE*      N/A     70  64  83 CALM      30.10F
ABINGDON*        N/A     70  61  73 CALM      30.11S
BRISTOL        MOSUNNY   71  60  68 SE3       30.09S
SEVIERVILLE*   SUNNY     73  63  68 CALM      30.06F
KNOXVILLE      MOSUNNY   72  67  84 SE3       30.06S
OAK RIDGE      SUNNY     76  65  68 CALM      30.07S
CROSSVILLE     SUNNY     76  63  64 E3        30.12R
NASHVILLE      MOSUNNY   80  61  52 NE6       30.08R
$$

...KEY TO REMARKS...
VSB - VISIBILITY IN MILES
WCI - WIND CHILL INDEX
HX  - HEAT INDEX

$$




USA.gov is the U.S. government's official web portal to all federal, state and local government web resources and services.